Wind_Speed
23 24 22 20 18 16 15 13 13 14 16 16 15 16 16 15 16 17 19 19 20 21 23 26 26 25 25 26 28 30 32 32 33 34 34 34 35 36
26 27 25 23 20 19 16 16 15 15 16 16 15 17 17 17 18 19 20 22 22 21 22 25 27 26 26 27 28 30 31 32 32 34 35 35 35 35
27 29 28 25 24 22 19 18 18 17 18 17 17 17 18 18 19 20 21 23 24 24 23 23 26 28 27 27 28 30 30 31 32 32 34 34 35 36
30 32 30 27 28 25 22 20 20 19 20 18 19 18 18 19 20 20 22 24 25 25 26 25 25 28 28 27 28 28 29 30 32 33 34 33 34 35
32 32 32 31 29 28 25 21 21 21 22 20 21 20 20 21 22 22 24 25 26 26 27 27 26 27 29 28 28 28 29 31 32 33 33 34 33 33
33 33 35 32 31 31 27 24 23 23 24 23 23 23 22 22 23 23 24 25 27 27 27 28 29 28 29 29 29 29 28 29 33 33 34 34 34 33
34 35 35 33 32 31 29 27 26 25 27 24 25 23 23 23 25 25 25 25 28 29 28 28 29 29 31 32 31 31 30 30 31 34 34 35 34 34
39 38 35 34 32 31 31 29 28 27 28 28 27 25 24 23 26 27 27 27 29 30 30 31 29 31 30 34 33 34 33 32 33 34 36 35 36 35
40 38 36 33 32 32 32 31 30 29 31 30 30 28 24 26 27 30 29 28 30 30 32 32 31 31 31 34 35 34 35 35 34 35 35 36 36 36
43 40 37 33 32 32 34 32 32 31 33 32 32 32 28 29 31 32 31 29 30 32 34 33 35 33 32 33 36 37 37 36 36 36 36 36 37 37
40 39 37 34 33 36 33 35 34 32 35 34 33 33 32 33 34 34 32 30 30 33 35 34 37 35 36 34 34 36 37 37 36 37 37 37 37 37
45 44 43 39 36 37 39 38 35 36 38 36 35 34 35 35 37 37 33 31 31 34 38 36 36 37 37 36 35 38 39 39 38 39 39 39 40 37
38 42 40 40 40 42 43 40 37 41 40 38 37 38 37 38 39 41 37 33 35 36 37 38 38 39 40 38 35 38 40 42 43 43 43 41 40 39
43 42 44 44 46 47 47 41 40 42 40 39 40 38 39 41 42 44 40 41 39 39 41 40 40 40 43 41 39 39 40 44 46 47 48 45 42 42
51 45 48 50 52 51 48 43 43 44 39 40 43 42 44 44 46 49 46 43 43 42 42 41 44 43 43 44 42 40 41 45 47 49 51 49 48 44
45 46 46 51 53 50 49 46 45 45 43 42 45 46 48 51 52 53 53 47 43 43 43 44 45 47 47 46 44 42 44 47 48 51 52 51 53 54
49 51 53 56 58 55 53 51 50 49 49 49 50 50 50 53 59 61 56 54 48 46 43 43 45 49 49 49 48 48 49 52 55 56 56 54 54 54
57 56 57 59 60 59 56 55 55 54 54 55 57 59 53 57 62 66 61 55 51 49 45 43 46 47 46 49 52 54 56 57 58 60 58 54 48 52
56 56 58 62 66 63 61 57 56 56 58 57 56 61 63 62 59 66 61 59 62 54 49 49 49 49 51 49 51 55 55 57 58 57 60 57 52 51
61 57 55 52 56 59 57 58 58 60 66 70 71 69 68 69 63 62 63 61 58 52 54 52 52 53 55 55 53 53 55 60 64 64 64 69 67 65
57 60 61 61 61 55 56 56 57 61 63 64 68 70 67 62 62 59 54 58 56 57 58 57 55 57 57 57 58 59 59 61 67 71 72 71 69 67
54 55 59 59 60 60 67 64 59 60 63 70 71 63 58 57 55 56 52 56 58 58 58 59 61 65 65 67 68 66 66 69 71 71 67 65 60 55
62 62 62 62 62 64 69 73 75 73 66 65 62 53 51 50 51 51 53 57 60 63 64 66 66 67 71 70 64 62 62 63 64 65 58 57 59 60
Wind_Direction
255 250 246 251 257 266 274 281 291 306 312 312 318 314 312 312 313 318 323 328 332 336 338 339 341 345 346 348 350 355 355 353 352 352 351 349 352 355
253 248 248 249 253 259 268 275 282 296 302 303 306 310 307 308 309 313 318 320 324 329 334 337 336 338 342 345 348 350 353 352 353 351 350 350 349 352
255 248 248 249 251 256 262 270 276 286 294 300 300 304 302 300 305 308 311 315 317 322 328 333 334 332 336 342 345 348 350 348 350 352 350 350 350 348
256 250 249 249 250 253 256 264 270 279 286 295 295 294 298 297 299 302 306 310 310 315 319 325 330 329 330 335 340 343 343 345 345 348 351 347 348 351
256 251 251 249 252 256 258 261 266 275 281 288 293 294 293 295 297 300 303 306 306 310 314 318 322 326 326 329 331 336 339 340 340 342 345 347 346 347
255 249 249 250 250 256 259 261 267 272 279 283 291 297 294 295 296 299 298 301 303 305 309 312 316 322 323 324 325 326 331 334 335 337 339 342 343 344
253 250 249 250 249 253 258 260 265 269 275 280 287 295 294 293 293 294 293 295 297 301 304 308 313 318 320 320 322 322 325 327 330 332 334 337 338 339
246 250 249 250 251 252 255 260 264 267 273 276 280 290 295 293 290 291 295 296 293 298 300 303 308 313 316 316 322 322 322 322 325 327 330 333 334 335
243 249 250 250 250 252 254 259 263 268 270 274 274 283 290 289 289 291 293 295 294 293 294 297 302 306 311 311 314 316 318 320 321 322 324 325 327 328
244 245 252 249 250 253 255 259 262 267 270 271 273 276 282 286 288 290 291 293 294 292 292 295 296 300 303 307 309 312 314 315 316 317 320 321 320 323
243 245 248 249 253 251 254 259 261 265 267 270 272 275 278 280 284 290 291 293 292 290 290 290 293 298 299 301 304 305 306 308 310 310 312 313 315 318
246 243 247 249 251 252 256 259 261 263 267 272 273 273 275 277 281 284 288 290 290 286 286 292 293 294 295 298 301 301 301 303 303 302 304 308 310 313
255 249 246 250 250 254 256 258 261 265 271 273 271 272 273 276 279 281 285 286 285 284 286 288 289 290 293 295 296 297 300 299 300 298 298 301 306 309
257 252 248 250 251 255 256 259 259 264 271 272 272 274 274 273 277 283 286 284 285 287 287 286 286 288 291 294 295 296 296 295 296 298 298 300 303 306
253 253 249 249 251 254 257 261 262 265 269 267 269 272 277 275 278 281 284 288 286 286 287 286 286 286 288 290 292 296 294 293 293 295 295 297 299 301
253 258 257 259 258 257 259 262 264 265 265 262 268 273 279 283 281 285 286 287 288 287 287 289 288 287 286 288 291 292 291 290 289 291 293 294 295 297
251 253 250 254 256 257 258 261 264 264 266 263 267 271 276 278 280 284 286 287 283 287 286 286 285 285 286 287 289 290 288 288 289 289 291 292 292 297
250 252 254 256 259 259 258 261 261 262 264 265 268 269 271 274 278 277 280 280 279 286 284 281 280 282 285 286 288 287 289 293 293 291 292 295 299 296
252 256 259 261 263 266 264 261 258 258 260 263 268 275 272 282 267 276 275 272 279 279 279 285 285 285 287 283 280 288 297 297 293 292 294 297 292 290
255 256 259 263 265 265 265 264 260 259 262 263 271 272 279 274 270 274 271 274 274 275 279 285 288 288 284 284 281 285 287 291 290 290 288 289 290 287
254 256 258 263 260 259 263 259 263 270 271 268 268 268 268 268 270 269 269 276 274 277 281 284 287 287 286 280 285 282 279 281 283 285 284 284 285 284
245 249 254 258 256 255 261 268 270 272 269 264 270 268 265 268 269 270 277 277 278 280 282 283 284 286 286 284 283 281 279 282 282 281 282 283 284 281
242 249 247 254 262 259 257 257 260 272 266 264 265 263 263 264 266 273 274 275 280 281 284 286 287 287 286 285 283 281 282 281 281 282 279 282 283 284
Height
5828 5829 5829 5830 5831 5831 5830 5830 5828 5826 5825 5823 5821 5819 5817 5814 5812 5810 5807 5804 5799 5795 5791 5787 5783 5778 5773 5768 5761 5755 5750 5742 5735 5728 5721 5714 5707 5700
5822 5823 5824 5825 5827 5826 5826 5825 5824 5823 5821 5819 5816 5815 5813 5811 5809 5806 5804 5801 5797 5792 5788 5784 5780 5776 5771 5767 5760 5754 5749 5741 5734 5728 5721 5714 5707 5700
5816 5817 5818 5820 5821 5821 5821 5820 5819 5818 5816 5816 5813 5811 5809 5807 5805 5803 5800 5797 5794 5790 5785 5780 5777 5773 5769 5764 5759 5752 5746 5741 5733 5726 5720 5713 5706 5699
5809 5811 5811 5813 5814 5816 5816 5815 5815 5813 5811 5811 5808 5805 5804 5802 5800 5798 5795 5792 5789 5786 5782 5778 5773 5769 5765 5761 5756 5750 5744 5739 5733 5725 5718 5712 5705 5699
5803 5805 5805 5806 5807 5809 5810 5809 5809 5808 5807 5806 5803 5801 5799 5797 5795 5793 5791 5788 5785 5782 5779 5774 5769 5765 5761 5756 5752 5747 5741 5736 5730 5724 5717 5710 5704 5698
5797 5798 5798 5800 5800 5801 5803 5803 5803 5803 5801 5800 5798 5796 5794 5793 5790 5788 5785 5782 5780 5776 5774 5770 5765 5761 5757 5752 5747 5743 5738 5732 5726 5721 5715 5708 5702 5695
5789 5790 5791 5792 5793 5794 5796 5796 5796 5796 5795 5794 5793 5791 5789 5787 5784 5782 5778 5776 5773 5771 5769 5766 5760 5756 5753 5747 5742 5738 5733 5728 5723 5717 5712 5706 5699 5693
5780 5781 5783 5785 5786 5787 5788 5789 5790 5789 5788 5788 5786 5785 5783 5780 5777 5775 5772 5770 5768 5765 5762 5759 5756 5751 5748 5742 5738 5732 5728 5723 5718 5713 5708 5703 5696 5690
5771 5772 5774 5776 5778 5779 5779 5781 5782 5783 5781 5781 5779 5778 5775 5773 5770 5767 5765 5763 5761 5758 5755 5751 5749 5746 5742 5737 5732 5727 5722 5718 5712 5707 5703 5698 5693 5687
5761 5763 5766 5767 5770 5771 5771 5772 5773 5773 5773 5771 5771 5769 5768 5765 5762 5759 5758 5756 5753 5751 5748 5746 5740 5738 5736 5731 5726 5722 5717 5712 5707 5701 5696 5692 5686 5682
5753 5754 5757 5759 5760 5761 5761 5763 5763 5765 5762 5763 5762 5761 5760 5758 5754 5752 5750 5748 5746 5742 5739 5737 5732 5730 5726 5724 5720 5714 5710 5705 5700 5695 5689 5684 5679 5675
5743 5744 5748 5751 5752 5751 5752 5752 5755 5754 5752 5752 5753 5751 5749 5748 5746 5743 5741 5739 5736 5733 5729 5728 5724 5719 5717 5714 5711 5706 5702 5697 5693 5686 5682 5677 5672 5668
5732 5735 5738 5739 5742 5740 5741 5743 5745 5743 5744 5743 5741 5740 5739 5738 5737 5733 5732 5729 5726 5723 5720 5717 5714 5709 5706 5705 5702 5696 5693 5687 5683 5677 5672 5669 5664 5661
5723 5725 5726 5729 5730 5729 5729 5733 5734 5732 5734 5733 5732 5730 5728 5727 5726 5724 5723 5719 5716 5713 5709 5707 5704 5700 5696 5694 5692 5687 5682 5676 5672 5668 5663 5660 5655 5652
5711 5711 5714 5716 5714 5715 5719 5721 5722 5722 5723 5722 5720 5719 5716 5714 5714 5713 5710 5707 5705 5703 5698 5696 5691 5688 5685 5682 5680 5678 5672 5666 5661 5656 5652 5649 5646 5640
5698 5700 5701 5704 5703 5705 5707 5709 5710 5711 5711 5710 5709 5707 5705 5703 5701 5700 5698 5696 5693 5691 5687 5682 5680 5676 5673 5670 5668 5666 5660 5654 5649 5644 5639 5637 5634 5629
5683 5684 5687 5688 5690 5692 5694 5695 5697 5698 5698 5697 5695 5694 5693 5691 5688 5685 5685 5682 5682 5679 5674 5670 5666 5662 5660 5657 5655 5651 5646 5640 5636 5632 5627 5624 5621 5617
5667 5672 5674 5675 5677 5678 5680 5682 5682 5683 5684 5682 5681 5680 5678 5676 5673 5669 5668 5667 5665 5664 5661 5655 5651 5649 5647 5644 5640 5634 5630 5626 5622 5617 5612 5610 5609 5603
5655 5660 5662 5662 5662 5663 5665 5665 5666 5668 5667 5667 5666 5665 5663 5659 5657 5654 5652 5650 5649 5646 5644 5640 5635 5633 5631 5630 5625 5618 5617 5613 5606 5600 5596 5595 5593 5589
5644 5646 5648 5649 5649 5649 5651 5653 5653 5651 5652 5650 5650 5647 5644 5643 5641 5638 5637 5634 5631 5628 5626 5623 5620 5616 5613 5611 5609 5608 5602 5595 5587 5583 5580 5575 5572 5568
5627 5630 5633 5634 5635 5636 5637 5637 5638 5637 5635 5633 5632 5631 5628 5625 5624 5622 5618 5616 5614 5612 5610 5607 5603 5599 5595 5591 5591 5588 5582 5576 5570 5564 5558 5553 5551 5547
5615 5616 5618 5620 5619 5620 5621 5622 5622 5621 5619 5618 5616 5612 5610 5609 5607 5605 5602 5600 5598 5596 5593 5589 5584 5580 5577 5572 5570 5565 5561 5557 5552 5546 5538 5531 5529 5530
5600 5603 5604 5605 5604 5604 5605 5605 5604 5603 5602 5600 5597 5595 5593 5592 5591 5589 5587 5584 5581 5578 5574 5570 5566 5561 5557 5552 5548 5545 5541 5536 5532 5528 5524 5517 5511 5507